STARLINK-1073, 44914

Orbit data source: Space-Track

STARLINK-1073, 44914 is a payload satellite owned by SpaceX/Seattle (US) in LEO that was launched on Tue, 07 Jan 2020 UTC via an FALCON 9 launch vehicle from the Air Force Eastern Test Range (AFETR). Payloads include a variety of satellites, spacecraft, and rockets equipped with specific instruments for various scientific and technological missions. These include communications satellites like Starlink; space stations such as the ISS; scientific satellites like the Hubble; Earth observation satellites from companies like Planet Labs, Umbra, and HawkEye 360; GPS; miniature CubeSats for education and research; and military/defense satellites.

Loading next visibility...
STARLINK-1073 details
Identifier
44914, 2020-001A
Orbit
LEO
Last TLE update20 hours ago
Origin
Flag of USSpaceX/Seattle (US)
ManufacturerSpaceX/Seattle
MissionPartially operational Commercial Communications
Bus & MotorSTARLINK, Unknown motor
Mass260 kg wet, ~248 kg dry
Launch date (UTC)
2020-01-07 (5 years ago)
Launch vehicle
FALCON 9
Launch site
Air Force Eastern Test Range (AFETR)
Object type
Payload
Rocket body
Debris
Shape & HBRBox + 1 Pan, 8.86 m
Radar Cross Section13.562 m², Large (>1 m²)

Expand to show TLE details & history

TLE from 20 hours ago
0 STARLINK-1073
1 44914U 20001A   24360.60437715  .00000579  00000-0  21008-4 0  9999
2 44914  53.0551 147.1871 0001101  86.2386 273.8745 15.44946855273816
Epoch: 2024-12-25T14:30Z
Definitive object data (Epoch: 2024-12-25T14:30:18.185Z)
Latitude-0.00009°
Longitude-164.98448°
Altitude432.378 km
Speed7.653 km/s
True Right ascension09h 48m 44s
True Declination0° 00' 00"
Sunlit
Object was in full shadow at TLE epoch
Visualization TLE readout
Latitude45.42708°
Longitude-119.65875°
Altitude435.621 km
Speed7.656 km/s
Apparent Right ascension17h 41m 56s
Apparent Declination13° 36' 19"
Sunlit
Object is in daylight
Visualization observer readout
Local Sidereal Time10:18:47
Azimuth66.146° ENE
Elevation-6.527°
Doppler factor1
Orbital elements
Apogee altitude432.559 km
Perigee altitude431.06 km
Semi-major axis6,809.946 km
Eccentricity0.0001101
Inclination53.0551°
RAAN147.1871°
Arg. of periapsis86.2386°
True anomaly273.86191°
Mean anomaly273.8745°
Eccentric anomaly273.86821°
Mean motion3.86214 °/min
BSTAR0.000021008
Orbital period93.21 mins
Loading maneuver chart data...

STARLINK-1073 Visibility forecast

Observer location: undefined°, undefined

Span
Click to sort rows by Start time (UTC) header in descending order
Start Az.
Max El. time (UTC)
Max El. Az.
Max El.
End time (UTC)
End Az.
6 mins2024-12-26 12:24:30.823Z215.605° SW2024-12-26 12:27:30.823Z142.533° SSE40.45°2024-12-26 12:30:30.823Z58.388° ENE
5 mins2024-12-26 18:56:30.823Z327.435° NNW2024-12-26 18:58:30.823Z26.071° NE35.878°2024-12-26 19:01:30.823Z108.545° ESE
|